Regional Weather Roundup
Issued by NWS

Home | Current Version | Previous Version | Text Only | Print | Product List | Glossary On
Versions: 1 2 3 4 5 6 7 8 9 10 11 12 13 14 15 16 17 18 19 20 21 22 23 24 25 26 27 28 29 30 31 32 33 34 35 36 37 38 39 40 41 42 43 44 45 46 47 48 49 50
000
ASUS43 KLSX 310807
RWRMO

WEATHER SUMMARY FOR MISSOURI
NATIONAL WEATHER SERVICE SPRINGFIELD MO
300 AM CDT TUE MAY 31 2016

NOTE: "FAIR" INDICATES FEW OR NO CLOUDS BELOW 12,000 FEET WITH NO
       SIGNIFICANT WEATHER AND/OR OBSTRUCTIONS TO VISIBILITY.
       CURRENT SKY AND/OR WEATHER CONDITIONS ARE NOT AVAILABLE FOR
       CHILLICOTHE AND FARMINGTON.

MOZ001>031-035>038-043-044-053-054-310900-
...NORTHERN AND WESTERN MISSOURI...

CITY           SKY/WX    TMP DP  RH WIND       PRES   REMARKS
KANSAS CTY INT CLOUDY    60  57  89 S8        29.94F
KANSAS C DTWN  CLEAR     65  59  81 SW5       29.93F
LEE`S SUMMIT   CLEAR     63  59  87 SE3       29.95F
ST JOSEPH      CLOUDY    63  60  90 S7        29.94S
CHILLICOTHE      N/A     60  59  96 CALM      29.96F
KIRKSVILLE     CLOUDY    63  61  93 S5        29.98S

$$
MOZ066>068-077>081-088>096-101>105-310900-
...SOUTHWEST MISSOURI...

CITY           SKY/WX    TMP DP  RH WIND       PRES   REMARKS
SPRINGFIELD    CLOUDY    65  61  87 SE8       29.94F
JOPLIN         CLEAR     65  63  93 SE6       29.92F

$$
MOZ032>034-039>042-045>050-055>058-069>072-310900-
...CENTRAL MISSOURI...

CITY           SKY/WX    TMP DP  RH WIND       PRES   REMARKS
COLUMBIA       LGT RAIN  64  62  93 SE3       29.99R
JEFFERSON CITY LGT RAIN  66  63  90 E3        29.99R
ROLLA          CLOUDY    64  61  90 CALM      29.97S
SEDALIA        CLOUDY    65  62  90 CALM      29.97F
WHITEMAN AFB   CLOUDY    62  62 100 E3        29.94F
WARRENSBURG    CLOUDY    61  61 100 NE3       29.94F

$$
MOZ051-052-059>065-310900-
...EAST CENTRAL MISSOURI...

CITY           SKY/WX    TMP DP  RH WIND       PRES   REMARKS
ST LOUIS INTL  CLOUDY    71  61  70 CALM      29.98S
SPIRIT OF STL  CLOUDY    66  66 100 CALM      29.97S
ST CHARLES     MOCLDY    70  62  76 CALM      29.96F

$$
MOZ072>076-082>087-097>100-106>115-310900-
...SOUTH CENTRAL AND SOUTHEAST MISSOURI...

CITY           SKY/WX    TMP DP  RH WIND       PRES   REMARKS
CAPE GIRARDEAU MOCLDY    68  67  96 CALM      29.95R
FARMINGTON     CLOUDY    66  64  93 CALM      29.99S
POPLAR BLUFF   CLOUDY    70  65  84 W6        29.96R
WEST PLAINS    CLOUDY    64  61  90 N3        29.99S

$$


USA.gov is the U.S. government's official web portal to all federal, state and local government web resources and services.